Regional Weather Roundup
Issued by NWS

Home | Current Version | Previous Version | Graphics & Text | Print | Product List | Glossary On
Versions: 1 2 3 4 5 6 7 8 9 10 11 12 13 14 15 16 17 18 19 20 21 22 23 24 25 26 27 28 29 30 31 32 33 34 35 36 37 38 39 40 41 42 43 44 45 46 47 48 49 50
000
ASUS44 KMEG 230110
RWRTN
TENNESSEE HOURLY STATE WEATHER ROUNDUP
NATIONAL WEATHER SERVICE MEMPHIS TN
800 PM CDT FRI AUG 22 2014

TNZ002-004-019-021-049-052-054-088>092-230200-
WEST TENNESSEE

CITY           SKY/WX    TMP DP  RH WIND       PRES   REMARKS
MEMPHIS INTL   PTCLDY    87  74  64 S6        29.99R HX  95
NWS MEMPHIS      N/A     89 N/A N/A MISG        N/A
JACKSON        CLEAR     82  77  84 S3        29.97F HX  90
DYERSBURG      PTCLDY    84  70  61 S3        29.96S
UNION CITY     CLEAR     82  77  83 CALM      29.95S HX  91
PARIS          CLEAR     79  73  83 CALM      29.98F
HUNTINGDON     CLEAR     81  75  81 CALM      29.97F
LEXINGTON      CLEAR     82  75  78 CALM      29.98S
SAVANNAH       CLEAR     81  79  94 CALM      30.00S
$$

TNZ008-025-027-028-033-062-065-066-230200-
NORTH MIDDLE TENNESSEE

CITY           SKY/WX    TMP DP  RH WIND       PRES   REMARKS
NASHVILLE      PTCLDY    86  72  62 CALM      29.99R HX  92
DICKSON        CLEAR     82  75  78 CALM      30.00S
PORTLAND       PTCLDY    82  72  69 SW3       30.00R
CLARKSVILLE    PTCLDY    84  74  71 SW6       29.98R HX  91
LEBANON        CLEAR     83  74  74 CALM      29.98R
SMYRNA         CLEAR     85  72  65 SW3       30.00R HX  91
MURFREESBORO   CLEAR     87  70  57 CALM      29.99R HX  92
COOKEVILLE     CLEAR     79  75  89 CALM      30.03R
LIVINGSTON     CLEAR     80  71  74 W3        30.05R
GALLATIN       CLEAR     86  73  64 W3        30.00R HX  93
CROSSVILLE     CLEAR     75  71  87 CALM      30.09R
$$

TNZ061-075-076-078-094-096-097-230200-
SOUTH MIDDLE TENNESSEE

CITY           SKY/WX    TMP DP  RH WIND       PRES   REMARKS
LEWISBURG      CLEAR     82  74  77 CALM      30.00S
FAYETTEVILLE   CLEAR     82  68  61 CALM      30.03R
TULLAHOMA      CLEAR     81  72  74 CALM      30.04S
WINCHESTER     CLEAR     81  75  83 CALM      30.03R
MCMINNVILLE    CLEAR     81  81 100 CALM      30.03R HX  91
COLUMBIA       CLEAR     82  75  78 SW3       30.00R
SHELBYVILLE    CLEAR     82  77  83 CALM      30.02S HX  91
$$

TNZ017-018-042-046-047-230200-
NORTHEAST TENNESSEE

CITY           SKY/WX    TMP DP  RH WIND       PRES   REMARKS
TRI CITIES     MOCLDY    72  69  90 CALM      30.05R
ELIZABETHTON   PTCLDY    70  70 100 CALM      30.06S
$$

TNZ012-013-036-069-073-074-230200-
CENTRAL EAST TENNESSEE

CITY           SKY/WX    TMP DP  RH WIND       PRES   REMARKS
KNOXVILLE      PTCLDY    82  70  66 SW6       30.01R
OAK RIDGE      CLEAR     83  73  72 CALM      30.03R
GATLINBURG     CLEAR     82  72  69 SW3       30.02R
MORRISTOWN     CLEAR     82  72  69 SW8       30.04R
$$

TNZ083-085-099-230200-
SOUTHEAST TENNESSEE

CITY           SKY/WX    TMP DP  RH WIND       PRES   REMARKS
CHATTANOOGA    PTCLDY    85  72  65 CALM      30.01S HX  91
$$

SKY/WX REPORTED AS FAIR MEANS FEW OR NO CLOUDS BELOW
12 THOUSAND FEET.




USA.gov is the U.S. government's official web portal to all federal, state and local government web resources and services.